Cross City, FL

5:57 AM EDT on September 21, 2017 (GMT -0400)
Cross City

Weather History for KCTY - February, 2012

Change the Weather History Date:

Tuesday, February 28, 2012

  Actual Average Record
Temperature  
Mean Temperature 63 °F 59 °F  
Max Temperature 69 °F 73 °F 84 °F (2007)
Min Temperature 57 °F 45 °F 21 °F (2002)
Degree Days  
Heating Degree Days 2 7  
Month to date heating degree days 241  
Since 1 July heating degree days 1120  
Cooling Degree Days 0 1  
Month to date cooling degree days 16  
Year to date cooling degree days 27  
Growing Degree Days 13 (Base 50)    
Moisture  
Dew Point 62 °F    
Average Humidity 92    
Maximum Humidity 100    
Minimum Humidity 81    
Precipitation  
Precipitation 0.00 in 0.18 in 0.56 in (2003)
Month to date precipitation 3.27  
Year to date precipitation 7.31  
Sea Level Pressure  
Sea Level Pressure 30.28 in    
Wind  
Wind Speed 3 mph (ENE)    
Max Wind Speed 7 mph    
Max Gust Speed -    
T = Trace of Precipitation, MM = Missing Value Source: NWS Daily Summary

Daily Weather History Graph

Daily Weather History Graph

Search for Another Location

Airport or City:

Trip Planner

Search our weather history database for the weather conditions in past years. The results will help you decide how hot, cold, wet, or windy it might be!

Date:

Astronomy

Feb. 28, 2012 Rise Set
Actual Time 6:59 AM EST 6:30 PM EST
Civil Twilight 6:35 AM EST 6:54 PM EST
Nautical Twilight 6:08 AM EST 7:22 PM EST
Astronomical Twilight 5:40 AM EST 7:50 PM EST
Moon 10:38 AM EST (2/28) No Moon Set
Length of Visible Light 12h 18m
Length of Day
11h 31m
Waxing Crescent, 37% of the Moon is Illuminated
Feb 28
Waxing Crescent
Feb 29
First Quarter
Mar 8
Full
Mar 14
Last Quarter
Mar 22
New

Hourly Weather History & Observations

Time (EST) Temp. Dew Point Humidity Pressure Visibility Wind Dir Wind Speed Gust Speed Precip Events Conditions
12:53 AM 64.0 °F 62.1 °F 93% 30.30 in - East 4.6 mph - N/A   Unknown
1:53 AM 64.0 °F 62.1 °F 93% 30.30 in - Calm Calm - N/A   Unknown
2:53 AM 64.0 °F 63.0 °F 96% 30.29 in - Calm Calm - N/A   Unknown
3:53 AM 64.0 °F 63.0 °F 96% 30.27 in - Calm Calm - N/A   Unknown
4:53 AM 64.0 °F 63.0 °F 96% 30.27 in - NNE 4.6 mph - N/A   Unknown
5:53 AM 63.0 °F 63.0 °F 100% 30.28 in - NE 4.6 mph - N/A   Unknown
6:53 AM 63.0 °F 62.1 °F 97% 30.29 in - NE 3.5 mph - N/A   Unknown
7:53 AM 62.1 °F 62.1 °F 100% 30.30 in - East 5.8 mph - N/A   Unknown
8:53 AM 63.0 °F 63.0 °F 100% 30.31 in - Calm Calm - N/A   Unknown
9:53 AM 63.0 °F 62.1 °F 97% 30.31 in - NE 4.6 mph - N/A   Unknown
10:53 AM 64.9 °F 62.1 °F 90% 30.31 in - Variable 6.9 mph - N/A   Unknown
11:53 AM 66.9 °F 63.0 °F 87% 30.31 in - NE 5.8 mph - N/A   Unknown
12:53 PM 66.0 °F 62.1 °F 87% 30.29 in - Variable 5.8 mph - N/A   Unknown
1:53 PM 66.9 °F 63.0 °F 87% 30.26 in - NE 6.9 mph - N/A   Unknown
2:53 PM 68.0 °F 63.0 °F 84% 30.26 in - East 5.8 mph - N/A   Unknown
3:53 PM 69.1 °F 63.0 °F 81% 30.25 in - East 5.8 mph - N/A   Unknown
4:53 PM 69.1 °F 63.0 °F 81% 30.24 in - East 4.6 mph - N/A   Unknown
5:53 PM 68.0 °F 62.1 °F 81% 30.25 in - East 4.6 mph - N/A   Unknown
6:53 PM 66.9 °F 62.1 °F 84% 30.25 in - ENE 4.6 mph - N/A   Unknown
7:53 PM 64.9 °F 62.1 °F 90% 30.26 in - Calm Calm - N/A   Unknown
8:53 PM 62.1 °F 60.1 °F 93% 30.26 in - Calm Calm - N/A   Unknown
9:53 PM 59.0 °F 57.9 °F 96% 30.25 in - Calm Calm - N/A   Unknown
10:53 PM 57.0 °F 55.9 °F 96% 30.26 in - Calm Calm - N/A   Unknown
11:53 PM 57.9 °F 57.9 °F 100% 30.25 in - Calm Calm - N/A   Unknown